Weather History for KPCZ - September, 2012

Change the Weather History Date:

Wednesday, September 12, 2012

  Actual Average (KCLI) Record (KCLI)
Temperature  
Mean Temperature 66 °F -  
Max Temperature 80 °F 73 °F - (-1)
Min Temperature 53 °F 48 °F - (-1)
Cooling Degree Days 2    
Growing Degree Days 16 (Base 50)    
Moisture  
Dew Point 50 °F    
Average Humidity 55    
Maximum Humidity 94    
Minimum Humidity 25    
Precipitation  
Precipitation 0.15 in - - ()
Sea Level Pressure  
Sea Level Pressure 30.07 in    
Wind  
Wind Speed 7 mph (West)    
Max Wind Speed 14 mph    
Max Gust Speed 18 mph    
Visibility 10 miles    
Events Rain    
Averages and records for this station are not official NWS values.
T = Trace of Precipitation, MM = Missing Value Source: NWS Daily Summary

Daily Weather History Graph

Daily Weather History Graph

Search for Another Location

Airport or City:

Trip Planner

Search our weather history database for the weather conditions in past years. The results will help you decide how hot, cold, wet, or windy it might be!

Date:

Astronomy

Sep. 12, 2012 Rise Set
Actual Time 6:32 AM CDT 7:11 PM CDT
Civil Twilight 6:02 AM CDT 7:40 PM CDT
Nautical Twilight 5:28 AM CDT 8:15 PM CDT
Astronomical Twilight 4:52 AM CDT 8:50 PM CDT
Moon 2:42 AM CDT (9/12) 5:04 PM CDT (9/12)
Length of Visible Light 13h 37m
Length of Day
12h 39m
Waning Crescent, 13% of the Moon is Illuminated
Sep 12
Waning Crescent
Sep 15
New
Sep 22
First Quarter
Sep 29
Full
Oct 8
Last Quarter

Hourly Weather History & Observations

Time (CDT) Temp. Heat Index Dew Point Humidity Pressure Visibility Wind Dir Wind Speed Gust Speed Precip Events Conditions
12:15 AM 68.0 °F - 53.6 °F 60% 29.97 in 10.0 mi South 5.8 mph - N/A   Clear
12:35 AM 68.0 °F - 53.6 °F 60% 29.97 in 10.0 mi South 4.6 mph - N/A   Clear
12:55 AM 68.0 °F - 53.6 °F 60% 29.98 in 10.0 mi South 5.8 mph - N/A   Clear
1:15 AM 68.0 °F - 53.6 °F 60% 29.98 in 10.0 mi South 5.8 mph - N/A   Clear
1:35 AM 66.2 °F - 53.6 °F 64% 29.98 in 10.0 mi South 5.8 mph - N/A   Clear
1:55 AM 64.4 °F - 53.6 °F 68% 29.98 in 10.0 mi South 6.9 mph - N/A   Clear
2:15 AM 64.4 °F - 53.6 °F 68% 29.98 in 10.0 mi South 6.9 mph - N/A   Clear
2:35 AM 64.4 °F - 53.6 °F 68% 29.98 in 10.0 mi South 6.9 mph - N/A   Clear
2:55 AM 64.4 °F - 53.6 °F 68% 29.98 in 10.0 mi South 4.6 mph - N/A   Clear
3:15 AM 64.4 °F - 53.6 °F 68% 29.98 in 10.0 mi South 4.6 mph - N/A   Clear
3:35 AM 62.6 °F - 53.6 °F 72% 29.98 in 10.0 mi South 4.6 mph - N/A   Clear
3:55 AM 62.6 °F - 53.6 °F 72% 29.98 in 10.0 mi South 5.8 mph - N/A   Clear
4:15 AM 62.6 °F - 53.6 °F 72% 29.98 in 10.0 mi South 6.9 mph - N/A   Clear
4:35 AM 62.6 °F - 53.6 °F 72% 29.98 in 10.0 mi South 5.8 mph - N/A   Clear
4:55 AM 62.6 °F - 53.6 °F 72% 29.99 in 10.0 mi South 4.6 mph - N/A   Clear
5:15 AM 62.6 °F - 53.6 °F 72% 29.99 in 10.0 mi South 4.6 mph - N/A   Clear
5:35 AM 62.6 °F - 53.6 °F 72% 30.00 in 10.0 mi South 4.6 mph - N/A   Clear
5:55 AM 62.6 °F - 53.6 °F 72% 30.00 in 10.0 mi South 4.6 mph - N/A   Clear
6:15 AM 62.6 °F - 53.6 °F 72% 30.00 in 10.0 mi South 5.8 mph - N/A   Clear
6:35 AM 62.6 °F - 55.4 °F 77% 30.01 in 10.0 mi SSW 4.6 mph - N/A   Clear
6:55 AM 62.6 °F - 53.6 °F 72% 30.01 in 10.0 mi SSW 4.6 mph - N/A   Clear
7:15 AM 64.4 °F - 55.4 °F 73% 30.02 in 10.0 mi SW 8.1 mph - N/A   Clear
7:35 AM 66.2 °F - 55.4 °F 68% 30.03 in 10.0 mi SSW 8.1 mph - N/A   Clear
7:55 AM 68.0 °F - 55.4 °F 64% 30.03 in 10.0 mi SSW 9.2 mph - N/A   Clear
8:15 AM 69.8 °F - 55.4 °F 60% 30.04 in 10.0 mi SW 8.1 mph - N/A   Clear
8:35 AM 69.8 °F - 55.4 °F 60% 30.04 in 10.0 mi SW 9.2 mph - N/A   Clear
8:55 AM 71.6 °F - 55.4 °F 57% 30.05 in 10.0 mi SSW 10.4 mph - N/A   Clear
9:15 AM 73.4 °F - 57.2 °F 57% 30.05 in 10.0 mi SW 8.1 mph - N/A   Clear
9:35 AM 73.4 °F - 57.2 °F 57% 30.05 in 10.0 mi WSW 8.1 mph - N/A   Clear
9:55 AM 77.0 °F - 57.2 °F 50% 30.05 in 10.0 mi West 9.2 mph - N/A   Clear
10:15 AM 77.0 °F - 55.4 °F 47% 30.05 in 10.0 mi West 9.2 mph - N/A   Clear
10:35 AM 77.0 °F - 55.4 °F 47% 30.06 in 10.0 mi West 9.2 mph - N/A   Clear
10:55 AM 77.0 °F - 57.2 °F 50% 30.06 in 10.0 mi West 8.1 mph - N/A   Clear
11:15 AM 78.8 °F - 57.2 °F 47% 30.07 in 10.0 mi West 9.2 mph - N/A   Clear
11:55 AM 78.8 °F - 55.4 °F 44% 30.06 in 10.0 mi West 4.6 mph - N/A   Clear
12:15 PM 78.8 °F - 55.4 °F 44% 30.06 in 10.0 mi WNW 8.1 mph - N/A   Clear
12:35 PM 78.8 °F - 55.4 °F 44% 30.06 in 10.0 mi NW 5.8 mph - N/A   Clear
12:55 PM 78.8 °F - 55.4 °F 44% 30.07 in 10.0 mi WNW 6.9 mph - N/A   Clear
1:15 PM 80.6 °F 80.5 °F 55.4 °F 42% 30.07 in 10.0 mi WNW 8.1 mph - N/A   Clear
1:35 PM 80.6 °F 80.5 °F 55.4 °F 42% 30.08 in 10.0 mi WNW 6.9 mph - N/A   Clear
1:55 PM 80.6 °F 80.5 °F 55.4 °F 42% 30.08 in 10.0 mi NW 11.5 mph - N/A   Clear
2:15 PM 80.6 °F - 51.8 °F 37% 30.08 in 10.0 mi NW 11.5 mph - N/A   Clear
2:35 PM 78.8 °F - 46.4 °F 32% 30.08 in 10.0 mi NW 8.1 mph - N/A   Clear
2:55 PM 78.8 °F - 44.6 °F 30% 30.08 in 10.0 mi NW 13.8 mph 17.3 mph N/A   Clear
3:15 PM 78.8 °F - 42.8 °F 28% 30.08 in 10.0 mi NNW 12.7 mph - N/A   Clear
3:35 PM 78.8 °F - 42.8 °F 28% 30.08 in 10.0 mi NW 12.7 mph - N/A   Clear
3:55 PM 78.8 °F - 41.0 °F 26% 30.08 in 10.0 mi NW 9.2 mph - N/A   Scattered Clouds
4:15 PM 77.0 °F - 41.0 °F 28% 30.09 in 10.0 mi NW 11.5 mph 17.3 mph N/A   Mostly Cloudy
4:55 PM 73.4 °F - 37.4 °F 27% 30.11 in 10.0 mi NNW 10.4 mph 18.4 mph N/A   Mostly Cloudy
5:15 PM 71.6 °F - 33.8 °F 25% 30.11 in 10.0 mi North 12.7 mph 17.3 mph N/A   Overcast
5:35 PM 69.8 °F - 32.0 °F 25% 30.13 in 10.0 mi NNW 11.5 mph - N/A   Overcast
5:55 PM 69.8 °F - 32.0 °F 25% 30.14 in 10.0 mi NNW 9.2 mph - N/A   Overcast
6:15 PM 68.0 °F - 32.0 °F 26% 30.15 in 10.0 mi NNW 6.9 mph - N/A   Overcast
6:35 PM 68.0 °F - 32.0 °F 26% 30.15 in 10.0 mi NNW 12.7 mph 18.4 mph N/A   Mostly Cloudy
7:35 PM 68.0 °F - 33.8 °F 28% 30.16 in 10.0 mi NNW 11.5 mph 18.4 mph N/A   Overcast
7:55 PM 64.4 °F - 33.8 °F 32% 30.18 in 10.0 mi NNW 12.7 mph 16.1 mph N/A   Overcast
8:15 PM 64.4 °F - 35.6 °F 34% 30.18 in 10.0 mi NNW 5.8 mph - N/A   Mostly Cloudy
8:35 PM 62.6 °F - 37.4 °F 39% 30.19 in 10.0 mi NNW 8.1 mph - N/A   Overcast
8:55 PM 62.6 °F - 37.4 °F 39% 30.18 in 10.0 mi North 9.2 mph - N/A   Mostly Cloudy
9:15 PM 59.0 °F - 44.6 °F 59% 30.19 in 10.0 mi NNW 10.4 mph - N/A Rain Rain
9:35 PM 55.4 °F - 48.2 °F 77% 30.19 in 10.0 mi North 4.6 mph - 0.01 in Rain Light Rain
9:55 PM 55.4 °F - 50.0 °F 82% 30.20 in 10.0 mi NW 4.6 mph - 0.02 in Rain Light Rain
10:15 PM 53.6 °F - 50.0 °F 88% 30.20 in 10.0 mi NNW 5.8 mph - N/A Rain Rain
10:35 PM 53.6 °F - 50.0 °F 88% 30.24 in 7.0 mi West 5.8 mph - 0.06 in Rain Rain
10:55 PM 53.6 °F - 51.8 °F 94% 30.22 in 10.0 mi NNW 6.9 mph - 0.11 in Rain Light Rain
11:15 PM 53.6 °F - 51.8 °F 94% 30.23 in 10.0 mi NNW 5.8 mph - 0.01 in Rain Light Rain
11:35 PM 53.6 °F - 50.0 °F 88% 30.22 in 10.0 mi NNW 5.8 mph - 0.02 in   Drizzle
11:55 PM 53.6 °F - 50.0 °F 88% 30.23 in 10.0 mi NNW 8.1 mph - 0.02 in   Overcast